Starlink 31531

operational
NORAD ID: 59477 Int'l Des: 2024-068 Owner: SPXS Country: US Constellation: starlink
LEOCIRCULAR

关于 Starlink 31531

正在加载描述...

实时位置

正在加载3D地球...

即将过境

高度历史

Altitude vs Time

uPlot chart will show altitude changes over time

两行轨道根数

1 59477U 24068Y 25307.78799583 .00001949 00000-0 80328-4 0 9993
2 59477 43.0029 330.3895 0001526 268.5890 91.4786 15.27584901 89896
Epoch: Nov 3, 2025 • Age: 42 hours

当前状态

高度 493.6 km
速度 7.62 km/s
星下点 -38.83°S, 21.47°E
发射日期 Apr 10, 2024
运行时间 1.5 years
类型 internet

技术详情

分类 Payload
质量 730.00 kg
干质量 700.00 kg
总质量 730.00 kg
长度 0.30 m
直径 4.10 m
跨度 29.00 m
形状 Box + pan
制造商 SPXS
平台类型 Starlink V2M
阶段状态 In Orbit
所有者/国家 SPXS/US

大型星座

Loading constellations...